Regional Weather Roundup
Issued by NWS Mobile, AL

Home | Current Version | Previous Version | Text Only | Print | Product List | Glossary On
Versions: 1 2 3 4 5 6 7 8 9 10 11 12 13 14 15 16 17 18 19 20 21 22 23 24 25 26 27 28 29 30 31 32 33 34 35 36 37 38 39 40 41 42 43 44 45 46 47 48 49 50
000
ASUS44 KMOB 040916
RWRMOB
REGIONAL WEATHER ROUNDUP
NATIONAL WEATHER SERVICE MOBILE AL
400 AM CDT MON MAY 04 2015

ALZ061>064-041000-
COASTAL ALABAMA


CITY           SKY/WX    TMP DP  RH WIND       PRES   REMARKS
MOBILE REG APT CLEAR     63  61  93 CALM      30.12F
BROOKLEY FIELD CLEAR     67  64  90 E3        30.14S
GULF SHORES    SUNNY     60  60  97 CALM      30.12S

$$

ALZ051>060-041000-
INTERIOR SOUTHWEST AND SOUTH CENTRAL ALABAMA


CITY           SKY/WX    TMP DP  RH WIND       PRES   REMARKS
ANDALUSIA/OPP  CLEAR     60  56  86 CALM      30.15F
EVERGREEN      CLEAR     55  53  93 CALM      30.16S
FLORALA        MOSUNNY   57  55  93 CALM      30.17F FOG
GREENVILLE     FAIR      56  52  86 CALM      30.16S

$$

FLZ001>006-041000-
WESTERN FLORIDA PANHANDLE


CITY           SKY/WX    TMP DP  RH WIND       PRES   REMARKS
CRESTVIEW      FOG       54  54 100 CALM      30.16S VSB 3/4
DESTIN         CLEAR     66  64  93 NE5       30.14S
DUKE FIELD     FOG       55  54  94 CALM      30.13F VSB 1/2
MARY ESTHER    CLEAR     60  57  91 CALM      30.12S
MILTON         SUNNY     62  59  90 NE3       30.14
PENSACOLA      CLEAR     64  63  96 NE6       30.12F
NAS PENSACOLA  CLEAR     62  60  93 CALM      30.12S
VALPARAISO     CLEAR     60  58  93 N3        30.13F

$$

...MARINE OBSERVATIONS...

STATION/POSITION TIME  SKY/WX   TEMP    WIND        PRES    VSBY
                                AIR SEA DIR/SP/G
                 (UTC)          (F)     (DEG/KT/KT) (MB)    (MI)
PASCAGOULA       0800            74     140/  9/ 12 1019.3F
PETIT BOIS ISL   0800            74     140/  9/ 12 1019.7F
E DAUPHIN ISLAND 0900            74     120/ 11/ 13 1019.2F
MIDDLE BAY LIGHT 0800            70      90/  8     1019.0F
USCG MOBILE BAY  0800            68 73   70/  3/  4 1019.1F
STATE DOCKS      0800            66 69              1019.9F
MEAHER PARK      0900            67      80/  2     1020.0F
FORT MORGAN      0800            74     150/ 13/ 14 1019.3F
12 S ORANGE BCH  0850            74 74  110/ 10/ 12 1018.9F
WVE H/P(F/S)=  4/ 6

PENSACOLA BAY    0800            74 76  120/  1/  3 1020.4F
64 S DAUPHIN ISL 0850            75 75  130/ 14/ 16 1018.9F
WVE H/P(F/S)=  4/ 6

67 S FORT MORGAN 0830            74                 1018.6F
115 SE PENSACOLA 0850            74 75   90/ 14/ 17 1019.8F
WVE H/P(F/S)=  3/ 6

MID GULF/42001   0850            76 79   60/ 12/ 14 1016.2F
WVE H/P(F/S)=  2/ 3

EAST GULF/42003  0850            76 81   70/ 14/ 17 1017.6F
WVE H/P(F/S)=  4/ 6


$$

...NEARBY LOCATIONS

CITY           SKY/WX    TMP DP  RH WIND       PRES   REMARKS
GULFPORT       PTCLDY    70  65  84 SE8       30.09F
BILOXI         PTCLDY    68  67  96 NE5       30.09F
PASCAGOULA     PTCLDY    60  60 100 CALM      30.11F
HATTIESBURG    MOCLDY    59  55  87 CALM      30.13F
LAUREL         PTCLDY    55  52  88 CALM      30.13F
MERIDIAN       CLEAR     52  50  93 CALM      30.14S
MERIDIAN NAS   CLEAR     54  50  86 CALM      30.14S
MONTGOMERY     CLEAR     59  54  83 CALM      30.16F
MAXWELL AFB    CLEAR     57  56  96 MISG      30.15F
TROY           CLEAR     54  52  93 CALM      30.17F
FORT RUCKER    CLEAR     58  55  90 CALM      30.15F
DALEVILLE      CLEAR     59  57  92 NE3       30.16S
DOTHAN         PTCLDY    60  58  92 E10G17    30.21R

$$

...OTHER SURROUNDING LOCATIONS...

CITY           SKY/WX    TMP DP  RH WIND       PRES   REMARKS
BIRMINGHAM     CLEAR     59  52  77 CALM      30.18R
TUSCALOOSA     CLEAR     56  53  90 CALM      30.15R FOG
COLUMBUS GA    CLEAR     57  53  86 CALM      30.18F
PANAMA CITY    NOT AVBL
TALLAHASSEE    CLEAR     58  51  78 CALM      30.18S
BATON ROUGE    CLEAR     59  57  93 NE3       30.09S
NEW ORLEANS    CLEAR     64  57  78 CALM      30.07F
SLIDELL        CLEAR     57  56  96 CALM      30.08F
JACKSON        CLEAR     56  52  86 CALM      30.11F
MCCOMB         CLEAR     58  55  90 CALM      30.11S

$$

...SURROUNDING MARINE OBSERVATIONS...

STATION/POSITION TIME  SKY/WX   TEMP    WIND        PRES    VSBY
                                AIR SEA DIR/SP/G
                 (UTC)          (F)     (DEG/KT/KT) (MB)    (MI)
WAVELAND         0800            69 74   80/  5/  6 1019.0F
PASCAGOULA RGN A 0800            74     140/ 11/ 14 1019.0F
PASCAGOULA PORT  0800               77                N/A
GRAND ISLE       0800            73 77   80/  7/ 10 1017.9F
SOUTHWEST PASS   0900            76     130/ 23/ 25 1017.6F
PILOT STATION E  0800            71 66  150/ 14/ 25 1018.4F
SHELL BEACH      0800            71 75  130/  4/  5 1018.0F
PANAMA CITY      0800            65 76   70/  6/  9 1020.7R
APALACHICOLA     0800            67 70   60/  3/  7 1021.1F
TYNDALL TOWER C  0900            73     130/ 22/ 23 1020.6S
S APLCHCLA/42036 0850            74 74  130/ 19/ 21 1020.2R
WVE H/P(F/S)=  4/ 5


$$




USA.gov is the U.S. government's official web portal to all federal, state and local government web resources and services.